Regional Weather Roundup
Issued by NWS

Home | Current Version | Previous Version | Text Only | Print | Product List | Glossary Off
Versions: 1 2 3 4 5 6 7 8 9 10 11 12 13 14 15 16 17 18 19 20 21 22 23 24 25 26 27 28 29 30 31 32 33 34 35 36 37 38 39 40 41 42 43 44 45 46 47 48 49 50

251
ASUS45 KCYS 311810
RWRWY

WYOMING REGIONAL WEATHER ROUNDUP
NATIONAL WEATHER SERVICE CHEYENNE WY
1200 PM MDT WED AUG 31 2016

NOTE:  "FAIR" INDICATES FEW OR NO CLOUDS BELOW 12,000 FEET
WITH NO SIGNIFICANT WEATHER AND/OR OBSTRUCTIONS TO VISIBILITY.

WYZ001-311900-
YELLOWSTONE NATIONAL PARK

CITY           SKY/WX    TMP DP  RH WIND       PRES   REMARKS
LK YELLOWSTONE   N/A     73  28  18 VRB5      30.36F
6HR MIN TEMP:  40; 6HR MAX TEMP:  73;

W YELLOWSTONE  NOT AVBL

$$
WYZ002>013-054>058-071-098>099-311900-
NORTHERN WYOMING

CITY           SKY/WX    TMP DP  RH WIND       PRES   REMARKS
JACKSON        SUNNY     75  36  23 SW6       30.26F
CODY           FAIR      84  34  16 E8        30.13F
GREYBULL       FAIR      88  42  20 S9        30.07F
6HR MIN TEMP:  63; 6HR MAX TEMP:  88;

WORLAND        FAIR      86  43  22 W7        30.09F
6HR MIN TEMP:  60; 6HR MAX TEMP:  88;

SHERIDAN       FAIR      90  41  18 SE22G29   30.05F
6HR MIN TEMP:  54; 6HR MAX TEMP:  90;

BUFFALO        FAIR      86  39  19 S20G30    30.16F
6HR MIN TEMP:  66; 6HR MAX TEMP:  86;

GILLETTE       FAIR      83  45  26 S20G29    30.17S
6HR MIN TEMP:  60; 6HR MAX TEMP:  83;

HULETT         FAIR      81  45  28 SW15G23   30.21S
NEWCASTLE      FAIR      75  52  43 SE13G21   30.24F

$$
WYZ014>020-022>026-101>103-311900-
CENTRAL WYOMING

CITY           SKY/WX    TMP DP  RH WIND       PRES   REMARKS
BIG PINEY      FAIR      75  34  22 SW3       30.32F
6HR MIN TEMP:  38; 6HR MAX TEMP:  76;

PINEDALE       FAIR      77  30  18 SE6       30.33F
DUBOIS         FAIR      79  23  12 SE3       30.30F
LANDER         FAIR      79  38  22 VRB6      30.21F
6HR MIN TEMP:  53; 6HR MAX TEMP:  79;

RIVERTON       FAIR      76  41  28 CALM      30.22F
6HR MIN TEMP:  51; 6HR MAX TEMP:  76;

CASPER         FAIR      78  45  30 CALM      30.23F
6HR MIN TEMP:  46; 6HR MAX TEMP:  78;

DOUGLAS        FAIR      79  50  36 SE17G24   30.24F
6HR MIN TEMP:  53; 6HR MAX TEMP:  79;


$$
WYZ021-027>030-104>119-311900-
SOUTHERN WYOMING

CITY           SKY/WX    TMP DP  RH WIND       PRES   REMARKS
EVANSTON       FAIR      79  27  14 MISG      30.30F
6HR MIN TEMP:  56; 6HR MAX TEMP:  81;

FORT BRIDGER   CLEAR     77  28  16 E5        30.34F
ROCK SPRINGS   FAIR      78  35  21 NE7       30.29F
6HR MIN TEMP:  53; 6HR MAX TEMP:  78;

DIXON          FAIR      78  37  23 CALM      30.31F
RAWLINS        FAIR      75  38  26 E7        30.32F
6HR MIN TEMP:  44; 6HR MAX TEMP:  75;

SARATOGA       FAIR      73  34  23 E3        30.34S
LARAMIE        FAIR      72  39  30 VRB5      30.35F
6HR MIN TEMP:  39; 6HR MAX TEMP:  72;

CHEYENNE       FAIR      67  52  58 S8        30.34S
6HR MIN TEMP:  45; 6HR MAX TEMP:  68;

TORRINGTON     FAIR      75  57  53 SE10G18   30.24F
6HR MIN TEMP:  55; 6HR MAX TEMP:  76;

PINE BLUFFS    MOCLDY    68  52  56 S9        30.31F

$$




USA.gov is the U.S. government's official web portal to all federal, state and local government web resources and services.